Observations for Trim Patrick St
| Time | AQI | Temp °C | Hum % | Pres Pa | CO μg/m³ | H₂S μg/m³ | NO μg/m³ | NO₂ μg/m³ | O₃ μg/m³ | SO₂ μg/m³ | PM1 μg/m³ | PM2.5 μg/m³ | PM10 μg/m³ |
|---|---|---|---|---|---|---|---|---|---|---|---|---|---|
| Thursday 27 August 2026 | |||||||||||||
| 20:05 | 3 | 18.8 | 82 | 38,460 | 0.05 | 5.32 | 0.7 | 16.63 | 45.45 | 1.46 | 17.43 | 25.23 | 27.75 |
| 20:04 | 3 | 18.8 | 82 | 38,460 | 0.05 | 5.53 | 0.82 | 16.92 | 46.59 | 1.67 | 18.29 | 25.91 | 28.51 |
| 20:03 | 3 | 18.8 | 82 | 38,460 | 0.05 | 5.55 | 0.67 | 16.63 | 47.69 | 1.95 | 18.29 | 25.23 | 27.75 |
| 20:01 | 3 | 18.8 | 82 | 38,460 | 0.04 | 5.45 | 0.79 | 16.6 | 48.4 | 1.78 | 16.57 | 23.85 | 26.24 |
| 20:00 | 3 | 18.8 | 82 | 38,460 | 0.03 | 5.26 | 0.73 | 15.17 | 50.59 | 1.43 | 18.29 | 24.56 | 27.02 |
| 19:59 | 3 | 18.8 | 82 | 38,460 | 0.03 | 5.16 | 0.75 | 14.84 | 50.32 | 1.46 | 14.86 | 23.18 | 25.5 |
| 19:58 | 3 | 18.8 | 82 | 38,460 | 0.03 | 5.26 | 0.8 | 13.75 | 50.67 | 1.48 | 17.43 | 24.57 | 27.03 |
| 19:57 | 3 | 18.9 | 82 | 38,460 | 0.03 | 5.42 | 0.73 | 14.69 | 49.2 | 1.9 | 16.57 | 24.59 | 27.04 |
| 19:56 | 3 | 18.9 | 82 | 38,460 | 0.02 | 4.74 | 0.67 | 13.64 | 52.79 | 1.44 | 17.43 | 24.59 | 27.04 |
| 19:55 | 3 | 18.9 | 82 | 38,460 | 0.02 | 4.5 | 0.57 | 14.14 | 52.34 | 1.38 | 18.29 | 25.99 | 28.59 |
| 19:54 | 3 | 18.9 | 82 | 38,460 | 0.02 | 5.31 | 0.63 | 13.36 | 52.59 | 1.71 | 19.14 | 27.38 | 30.12 |
| 19:53 | 3 | 18.9 | 82 | 38,460 | 0.03 | 6.42 | 0.6 | 21.73 | 42.59 | 1.62 | 20 | 26.7 | 29.37 |
| 19:52 | 3 | 19 | 82 | 38,460 | 0.03 | 7.2 | 0.57 | 22.32 | 42.85 | 2.06 | 19.14 | 25.32 | 27.85 |
| 19:51 | 3 | 18.9 | 82 | 38,460 | 0.01 | 7.18 | 0.82 | 29.31 | 41.7 | 0.75 | 16.57 | 24.64 | 27.1 |
| 19:49 | 3 | 19 | 81 | 38,460 | 0.05 | 6.78 | 0.87 | 21.01 | 46.82 | 1.55 | 17.43 | 24.66 | 27.13 |
| 19:48 | 3 | 19 | 81 | 38,460 | 0.01 | 6.55 | 1.02 | 20.99 | 46.51 | 0.98 | 18.29 | 26.77 | 29.44 |
| 19:47 | 3 | 19 | 81 | 38,460 | 0.01 | 4.95 | 1.16 | 14.71 | 52.7 | 1.1 | 17.43 | 24.67 | 27.14 |
| 19:44 | 3 | 19.1 | 81 | 38,460 | 0.01 | 4.1 | 0.66 | 11.91 | 52.71 | 2.08 | 15.71 | 24.7 | 27.17 |
| 19:41 | 3 | 19.1 | 81 | 38,460 | 0 | 4.44 | 0.61 | 12.53 | 53.55 | 1.94 | 15.71 | 24.71 | 27.18 |
| 19:40 | 3 | 19.1 | 81 | 38,460 | 0 | 4.44 | 0.61 | 12.67 | 53.79 | 1.51 | 18.29 | 26.12 | 27.02 |